Location: Unspecified
(0.0000°N, 0.0000°E)
Time: 18:21:57
(UTC+00:00)

XW-2C - Pass Details

Date: 08 December 2017
Orbit: 511 x 530 km, 97.5° (Epoch: 20 April)

Event Time Altitude Azimuth Distance (km) Brightness Sun altitude
Rises 05:03:08 0° 36° (NE) 2,657 ? -11.2°
Reaches altitude 10° 05:05:40 10° 53° (NE) 1,770 ? -10.6°
Maximum altitude 05:08:29 20° 101° (ESE) 1,266 ? -10.0°
Drops below altitude 10° 05:11:19 10° 149° (SSE) 1,771 ? -9.3°
Sets 05:13:50 0° 166° (SSE) 2,660 ? -8.8°
